Regional Weather Roundup
Issued by NWS Green Bay, WI

Home | Current Version | Previous Version | Text Only | Print | Product List | Glossary On
Versions: 1 2 3 4 5 6 7 8 9 10 11 12 13 14 15 16 17 18 19 20 21 22 23 24 25 26 27 28 29 30 31 32 33 34 35 36 37 38 39 40 41 42 43 44 45 46 47 48 49 50
000
ASUS43 KGRB 020800
RWRGRB

NORTH-CENTRAL AND NORTHEAST WISCONSIN REGIONAL WEATHER ROUNDUP
NATIONAL WEATHER SERVICE GREEN BAY WI
300 AM CDT TUE JUN 02 2015

WIZ005-009-010>012-018-019-020900-
NORTH CENTRAL WISCONSIN

CITY           SKY/WX    TMP DP  RH WIND       PRES   REMARKS
IRONWOOD       CLEAR     52  37  58 S10G20    30.12F
MANITOWISH WTR NOT AVBL
ARBOR VITAE    NOT AVBL
EAGLE RIVER    NOT AVBL
LAND O LAKES   NOT AVBL
RHINELANDER    PTCLDY    40  35  83 CALM      30.19F
PHILLIPS       NOT AVBL
ANTIGO         NOT AVBL
TOMAHAWK       NOT AVBL
MERRILL        NOT AVBL
$$

WIZ013-073-020900-
NORTHEAST WISCONSIN

CITY           SKY/WX    TMP DP  RH WIND       PRES   REMARKS
IRON MOUNTAIN  CLEAR     35  32  88 CALM      30.19F
MARINETTE      CLEAR     39  36  87 CALM      30.20S
$$

WIZ017-030-035>037-045-020900-
CENTRAL WISCONSIN

CITY           SKY/WX    TMP DP  RH WIND       PRES   REMARKS
MEDFORD        NOT AVBL
WAUSAU         CLEAR     44  41  89 E3        30.18S
MOSINEE        NOT AVBL
MARSHFIELD     CLEAR     46  37  71 E3        30.18F
WISC RAPIDS    CLEAR     41  36  82 CALM      30.20S
STEVENS POINT  NOT AVBL
WAUPACA        NOT AVBL
SHAWANO        NOT AVBL
CLINTONVILLE   NOT AVBL
$$

WIZ038-039-048-051-020900-
FOX VALLEY

CITY           SKY/WX    TMP DP  RH WIND       PRES   REMARKS
NWS GREEN BAY  CLEAR     43  41  93 CALM      30.20S
APPLETON       NOT AVBL
OSHKOSH        CLEAR     42  38  85 CALM      30.19S
FOND DU LAC    CLEAR     40  38  93 CALM      30.20R
$$

WIZ022-050-052-020900-
EAST CENTRAL WISCONSIN

CITY           SKY/WX    TMP DP  RH WIND       PRES   REMARKS
STURGEON BAY   CLEAR     45  32  61 CALM      30.22S
MANITOWOC      NOT AVBL
SHEBOYGAN      CLEAR     40  38  93 CALM      30.20S
$$

LMZ563-521-522-541>543-020900-
LAKESHORE

STATION/POSITION TIME  TEMP    WIND        PRES    VSBY  WAVE
                       AIR SEA DIR/SP/G                  HT/PER
                 (UTC) (F)     (DEG/KT/KT) (MB)    (MI)  (FT/S)
SHEBOYGAN LKSHOR 0700   49     330/  4/  5 1023.1F
KEWAUNEE LKSHORE 0700   42     310/  2/  4 1021.9
ALGOMA MARINA    0709             CALM       N/A
NORTHPORT PIER   0700   51     100/  5/  7 1022.7F
N MID LAKE BUOY  0650   40 37  120/  6/  6 1023.5F         0
SISTER BAY LKSHO 0718   42        CALM       N/A
CHAMBERS ISLAND  0740   41        CALM     1022.7F
MENOMINEE LKSHOR 0700   50     310/  3/  3 1023.2
$$



USA.gov is the U.S. government's official web portal to all federal, state and local government web resources and services.